GW0053 Weather Reports


time (UTC)temp
C
wind
direction
speed
KPH
gust
KPH
rain 1hr
cm
rain 24hr
cm
rain mn
cm
humidity
%
barometer
mb
20260505124541 16 199 12.9 24.1 0.00 0.03 0.00 64 1006.9
20260505123042 15 205 9.7 24.1 0.00 0.03 0.00 66 1006.9
20260505121539 13 209 12.9 25.7 0.00 0.03 0.00 69 1007.0
20260505120049 12 193 9.7 17.7 0.00 0.03 0.00 73 1007.1
20260505114544 12 205 4.8 14.5 0.00 0.03 0.00 72 1007.0
20260505113041 11 178 3.2 11.3 0.00 0.03 0.00 74 1007.0
20260505111537 10 164 3.2 9.7 0.00 0.03 0.00 77 1006.9
20260505101550 8 175 3.2 9.7 0.00 0.03 0.00 81 1007.0
20260505100039 8 188 1.6 8.0 0.00 0.03 0.00 83 1006.8
20260505094541 7 182 1.6 8.0 0.00 0.03 0.00 84 1006.7
20260505093037 7 160 3.2 8.0 0.00 0.03 0.00 85 1006.7
20260505091555 7 181 1.6 6.4 0.00 0.03 0.00 86 1006.8
20260505090042 7 184 3.2 8.0 0.00 0.03 0.00 86 1006.9
20260505084538 6 189 1.6 8.0 0.00 0.03 0.00 87 1006.9
20260505083037 7 175 1.6 8.0 0.00 0.03 0.00 86 1006.9
20260505081537 6 181 0.0 6.4 0.00 0.03 0.00 87 1006.9
20260505080036 6 0 1.6 6.4 0.00 0.03 0.00 86 1006.8
20260505074543 6 163 1.6 6.4 0.00 0.03 0.00 86 1006.9
20260505073050 6 186 1.6 6.4 0.00 0.03 0.00 85 1006.9
20260505071551 7 226 3.2 6.4 0.00 0.03 0.00 85 1007.0
20260505070039 6 191 1.6 8.0 0.00 0.03 0.00 86 1006.9
20260505064538 6 176 3.2 8.0 0.00 0.03 0.00 86 1006.9
20260505063035 7 194 3.2 11.3 0.00 0.03 0.00 85 1006.9
20260505061546 6 221 1.6 6.4 0.00 0.03 0.00 87 1006.9
20260505060047 6 184 1.6 6.4 0.00 0.03 0.00 87 1006.8
20260505054539 6 163 0.0 6.4 0.00 0.03 0.00 88 1006.9
20260505053038 6 101 3.2 11.3 0.00 0.03 0.00 89 1006.7
20260505051548 6 96 6.4 12.9 0.00 0.03 0.00 88 1006.8
20260505041538 7 77 8.0 11.3 0.00 0.03 0.00 86 1006.6
20260505040039 7 93 8.0 11.3 0.00 0.03 0.00 86 1006.8
20260505034535 8 89 8.0 14.5 0.00 0.03 0.03 84 1006.7
20260505033039 8 88 4.8 11.3 0.00 0.03 0.03 82 1006.8
20260505031539 8 86 4.8 11.3 0.00 0.03 0.03 83 1006.9
20260505030039 8 72 1.6 6.4 0.00 0.03 0.03 83 1007.0
20260505024536 8 93 1.6 9.7 0.00 0.03 0.03 82 1006.8
20260505023041 8 98 4.8 12.9 0.00 0.03 0.03 81 1007.0
20260505021538 8 111 3.2 11.3 0.00 0.03 0.03 80 1007.0
20260505020036 8 97 3.2 6.4 0.00 0.03 0.03 80 1007.0
20260505014536 9 77 1.6 3.2 0.00 0.03 0.03 79 1006.8
20260505013058 10 77 1.6 4.8 0.00 0.03 0.03 77 1006.5
20260505011541 10 77 3.2 6.4 0.00 0.03 0.03 77 1006.5
20260505010037 9 70 0.0 3.2 0.00 0.03 0.03 78 1006.4
20260505004537 10 70 1.6 4.8 0.00 0.03 0.03 76 1006.4
20260505003036 10 68 1.6 4.8 0.00 0.03 0.03 77 1006.1
20260505001536 10 0 0.0 0.0 0.00 0.03 0.03 77 1005.8
20260505000053 10 303 0.0 6.4 0.00 0.03 0.03 74 1005.7
20260504234539 10 319 1.6 6.4 0.00 0.03 0.03 73 1005.4
20260504233041 11 311 1.6 11.3 0.00 0.03 0.03 70 1005.1
20260504231536 12 306 3.2 9.7 0.00 0.03 0.03 66 1005.0
20260504230036 13 299 6.4 19.3 0.00 0.03 0.03 63 1004.8
20260504224535 13 298 6.4 22.5 0.00 0.03 0.03 62 1004.6
20260504223044 13 317 14.5 25.7 0.00 0.03 0.03 60 1004.6
20260504221545 13 320 11.3 24.1 0.00 0.03 0.03 61 1004.4
20260504220042 14 277 12.9 30.6 0.00 0.03 0.03 60 1004.3
20260504214542 13 316 11.3 25.7 0.00 0.03 0.03 62 1004.2
20260504213043 13 300 14.5 22.5 0.00 0.03 0.03 63 1004.2
20260504211539 13 284 9.7 19.3 0.00 0.03 0.03 67 1004.1
20260504210038 12 301 6.4 14.5 0.00 0.03 0.03 68 1004.1
20260504204536 13 280 11.3 29.0 0.00 0.08 0.03 65 1003.8
20260504203037 12 265 12.9 27.4 0.00 0.08 0.03 67 1003.6
20260504201539 13 312 12.9 24.1 0.00 0.08 0.03 67 1003.5
20260504200045 12 281 11.3 25.7 0.00 0.08 0.03 68 1003.5
20260504194537 12 282 9.7 27.4 0.00 0.15 0.03 69 1003.5
20260504193036 12 269 12.9 25.7 0.00 0.15 0.03 70 1003.5
20260504191542 12 256 12.9 27.4 0.00 0.15 0.03 70 1003.5
20260504190036 11 203 14.5 29.0 0.00 0.15 0.03 71 1003.6
20260504184553 11 261 12.9 30.6 0.00 0.30 0.03 72 1003.8
20260504183039 11 279 14.5 24.1 0.00 0.30 0.03 75 1003.9
20260504181538 10 311 6.4 16.1 0.00 0.30 0.03 83 1004.1
20260504180035 10 264 6.4 14.5 0.00 0.30 0.03 83 1004.2
20260504174539 10 286 6.4 16.1 0.03 0.46 0.03 83 1004.1
20260504173037 9 272 6.4 16.1 0.03 0.46 0.03 83 1004.0
20260504171536 9 292 8.0 16.1 0.03 0.46 0.03 84 1004.0